Flag for U.S.A. Weather past 2 weeks in El Monte, California, U.S.A.

Now
53 °F

Clear.


Feels Like: 53 °F
Forecast: 53 / 75 °F
Wind: No wind

Location: Fullerton Municipal Airport

Current Time: Jan 28, 2015 at 5:07:11 AM

Latest Report: Jan 28, 2015 at 3:53 AM


Visibility: 10 mi

Pressure: 30.12 "Hg

Humidity: 83%

Dew point: 48 °F

Location of El MonteLocation

Historic Weather in El Monte — Graph

°F

El Monte temperature yesterday

Maximum temperature yesterday: 74 °F (at 1:53 PM)
Minimum temperature yesterday: 55 °F (at 6:53 AM)
Average temperature yesterday: 63 °F

Past Weeks' High & Low Weather Summary

 TemperatureHumidityPressure
High84 °F (Jan 24, 2:53 PM)93% (Jan 20, 2:53 AM)30.24 "Hg (Jan 20, 2:53 AM)
Low46 °F (Jan 16, 5:53 AM)9% (Jan 23, 2:53 PM)29.89 "Hg (Jan 20, 2:53 PM)
Average62 °F51%30.09 "Hg
* Reported Jan 13 3:53 AM — Jan 28 3:53 AM, El Monte, Weather by CustomWeather, © 2014

Note: Actual official high and low records may vary slightly from our data, if they occured in-between our weather recording intervals... More about our weather records

Advertising

El Monte weather history for previous 24 hours

 ConditionsComfort  
Time TempWeatherWind HumidityBarometerVisibility
3:53 AM
Jan 28
53 °FClear.No wind83%30.12 "Hg10 mi
2:53 AM54 °FClear.No wind80%30.14 "Hg10 mi
1:53 AM55 °FClear.No wind77%30.16 "Hg10 mi
12:53 AM55 °FClear.No wind77%30.15 "Hg10 mi
11:53 PM
Jan 27
56 °FClear.No wind77%30.15 "Hg10 mi
10:53 PM57 °FClear.No wind74%30.15 "Hg10 mi
9:53 PM58 °FClear.No wind75%30.16 "Hg10 mi
8:53 PM60 °FClear.No wind69%30.15 "Hg10 mi
7:53 PM62 °FClear.No wind65%30.16 "Hg10 mi
6:53 PM64 °FClear.6 mph56%30.15 "Hg10 mi
5:53 PM67 °FClear.5 mph51%30.13 "Hg10 mi
4:53 PM69 °FSunny.7 mph49%30.13 "Hg10 mi
3:53 PM73 °FSunny.5 mph43%30.13 "Hg10 mi
2:53 PM73 °FSunny.8 mph44%30.12 "Hg10 mi
1:53 PM74 °FSunny.5 mph37%30.12 "Hg10 mi
12:53 PM73 °FSunny.3 mph38%30.13 "Hg10 mi
11:53 AM72 °FSunny.3 mph43%30.15 "Hg10 mi
10:53 AM69 °FSunny.No wind51%30.17 "Hg10 mi
9:53 AM66 °FSunny.3 mph65%30.18 "Hg10 mi
8:53 AM63 °FSunny.No wind75%30.19 "Hg6 mi
7:53 AM58 °FFog.3 mph87%30.18 "Hg5 mi
6:53 AM55 °FFog.No wind90%30.16 "Hg5 mi
5:53 AM56 °FFog.No wind90%30.14 "Hg6 mi
Weather by CustomWeather, © 2014

See weather overviewHow to use our weather pages